Year,Month,Day,Hour,Minute,Value (Times are PST for windgust in km/hr)
2010,11,22,00,00,19.30
2010,11,22,00,01,17.70
2010,11,22,00,02,9.60
2010,11,22,00,03,14.50
2010,11,22,00,04,8.10
2010,11,22,00,05,8.10
2010,11,22,00,06,22.50
2010,11,22,00,07,9.60
2010,11,22,00,08,9.60
2010,11,22,00,09,11.30
2010,11,22,00,10,20.90
2010,11,22,00,11,19.30
2010,11,22,00,12,11.30
2010,11,22,00,13,20.90
2010,11,22,00,14,16.10
2010,11,22,00,15,12.90
2010,11,22,00,16,9.60
2010,11,22,00,17,9.60
2010,11,22,00,18,9.60
2010,11,22,00,19,11.30
2010,11,22,00,20,11.30
2010,11,22,00,21,11.30
2010,11,22,00,22,14.50
2010,11,22,00,23,12.90
2010,11,22,00,24,8.10
2010,11,22,00,25,9.60
2010,11,22,00,26,11.30
2010,11,22,00,27,9.60
2010,11,22,00,28,8.10
2010,11,22,00,29,6.40
2010,11,22,00,30,4.80
2010,11,22,00,31,9.60
2010,11,22,00,32,8.10
2010,11,22,00,33,17.70
2010,11,22,00,34,8.10
2010,11,22,00,35,6.40
2010,11,22,00,36,9.60
2010,11,22,00,37,9.60
2010,11,22,00,38,8.10
2010,11,22,00,39,6.40
2010,11,22,00,40,11.30
2010,11,22,00,41,8.10
2010,11,22,00,42,9.60
2010,11,22,00,43,20.90
2010,11,22,00,44,11.30
2010,11,22,00,45,9.60
2010,11,22,00,46,6.40
2010,11,22,00,47,11.30
2010,11,22,00,48,3.20
2010,11,22,00,49,20.90
2010,11,22,00,50,20.90
2010,11,22,00,51,11.30
2010,11,22,00,52,12.90
2010,11,22,00,53,11.30
2010,11,22,00,54,6.40
2010,11,22,00,55,9.60
2010,11,22,00,56,11.30
2010,11,22,00,57,8.10
2010,11,22,00,58,8.10
2010,11,22,00,59,6.40
2010,11,22,01,00,3.20
2010,11,22,01,01,4.80
2010,11,22,01,02,3.20
2010,11,22,01,03,8.10
2010,11,22,01,04,9.60
2010,11,22,01,05,9.60
2010,11,22,01,06,6.40
2010,11,22,01,07,6.40
2010,11,22,01,08,4.80
2010,11,22,01,09,8.10
2010,11,22,01,10,4.80
2010,11,22,01,11,4.80
2010,11,22,01,12,6.40
2010,11,22,01,13,8.10
2010,11,22,01,14,8.10
2010,11,22,01,15,9.60
2010,11,22,01,16,8.10
2010,11,22,01,17,6.40
2010,11,22,01,18,11.30
2010,11,22,01,19,11.30
2010,11,22,01,20,6.40
2010,11,22,01,21,8.10
2010,11,22,01,22,6.40
2010,11,22,01,23,4.80
2010,11,22,01,24,8.10
2010,11,22,01,25,8.10
2010,11,22,01,26,6.40
2010,11,22,01,27,6.40
2010,11,22,01,28,6.40
2010,11,22,01,29,8.10
2010,11,22,01,30,9.60
2010,11,22,01,31,6.40
2010,11,22,01,32,6.40
2010,11,22,01,33,6.40
2010,11,22,01,34,8.10
2010,11,22,01,35,6.40
2010,11,22,01,36,4.80
2010,11,22,01,37,4.80
2010,11,22,01,38,4.80
2010,11,22,01,39,6.40
2010,11,22,01,40,8.10
2010,11,22,01,41,9.60
2010,11,22,01,42,6.40
2010,11,22,01,43,8.10
2010,11,22,01,44,8.10
2010,11,22,01,45,9.60
2010,11,22,01,46,8.10
2010,11,22,01,47,14.50
2010,11,22,01,48,11.30
2010,11,22,01,49,8.10
2010,11,22,01,50,9.60
2010,11,22,01,51,9.60
2010,11,22,01,52,9.60
2010,11,22,01,53,6.40
2010,11,22,01,54,6.40
2010,11,22,01,55,11.30
2010,11,22,01,56,9.60
2010,11,22,01,57,8.10
2010,11,22,01,58,6.40
2010,11,22,01,59,4.80
2010,11,22,02,00,4.80
2010,11,22,02,01,6.40
2010,11,22,02,02,11.30
2010,11,22,02,03,8.10
2010,11,22,02,04,4.80
2010,11,22,02,05,4.80
2010,11,22,02,06,6.40
2010,11,22,02,07,9.60
2010,11,22,02,08,8.10
2010,11,22,02,09,8.10
2010,11,22,02,10,8.10
2010,11,22,02,11,9.60
2010,11,22,02,12,9.60
2010,11,22,02,13,14.50
2010,11,22,02,14,12.90
2010,11,22,02,15,9.60
2010,11,22,02,16,9.60
2010,11,22,02,17,8.10
2010,11,22,02,18,6.40
2010,11,22,02,19,6.40
2010,11,22,02,20,9.60
2010,11,22,02,21,11.30
2010,11,22,02,22,8.10
2010,11,22,02,23,8.10
2010,11,22,02,24,8.10
2010,11,22,02,25,9.60
2010,11,22,02,26,12.90
2010,11,22,02,27,11.30
2010,11,22,02,28,9.60
2010,11,22,02,29,12.90
2010,11,22,02,30,17.70
2010,11,22,02,31,11.30
2010,11,22,02,32,14.50
2010,11,22,02,33,9.60
2010,11,22,02,34,8.10
2010,11,22,02,35,8.10
2010,11,22,02,36,12.90
2010,11,22,02,37,16.10
2010,11,22,02,38,11.30
2010,11,22,02,39,11.30
2010,11,22,02,40,9.60
2010,11,22,02,41,9.60
2010,11,22,02,42,11.30
2010,11,22,02,43,4.80
2010,11,22,02,44,3.20
2010,11,22,02,45,8.10
2010,11,22,02,46,11.30
2010,11,22,02,47,9.60
2010,11,22,02,48,6.40
2010,11,22,02,49,4.80
2010,11,22,02,50,3.20
2010,11,22,02,51,6.40
2010,11,22,02,52,8.10
2010,11,22,02,53,8.10
2010,11,22,02,54,9.60
2010,11,22,02,55,11.30
2010,11,22,02,56,9.60
2010,11,22,02,57,14.50
2010,11,22,02,58,11.30
2010,11,22,02,59,14.50
2010,11,22,03,00,8.10
2010,11,22,03,01,8.10
2010,11,22,03,02,3.20
2010,11,22,03,03,8.10
2010,11,22,03,04,16.10
2010,11,22,03,05,20.90
2010,11,22,03,06,11.30
2010,11,22,03,07,9.60
2010,11,22,03,08,6.40
2010,11,22,03,09,8.10
2010,11,22,03,10,8.10
2010,11,22,03,11,9.60
2010,11,22,03,12,9.60
2010,11,22,03,13,8.10
2010,11,22,03,14,3.20
2010,11,22,03,15,8.10
2010,11,22,03,16,6.40
2010,11,22,03,17,4.80
2010,11,22,03,18,14.50
2010,11,22,03,19,9.60
2010,11,22,03,20,9.60
2010,11,22,03,21,8.10
2010,11,22,03,22,11.30
2010,11,22,03,23,17.70
2010,11,22,03,24,14.50
2010,11,22,03,25,19.30
2010,11,22,03,26,14.50
2010,11,22,03,27,11.30
2010,11,22,03,28,11.30
2010,11,22,03,29,22.50
2010,11,22,03,30,17.70
2010,11,22,03,31,14.50
2010,11,22,03,32,9.60
2010,11,22,03,33,20.90
2010,11,22,03,34,17.70
2010,11,22,03,35,16.10
2010,11,22,03,36,9.60
2010,11,22,03,37,22.50
2010,11,22,03,38,16.10
2010,11,22,03,39,12.90
2010,11,22,03,40,20.90
2010,11,22,03,41,14.50
2010,11,22,03,42,20.90
2010,11,22,03,43,19.30
2010,11,22,03,44,19.30
2010,11,22,03,45,17.70
2010,11,22,03,46,16.10
2010,11,22,03,47,9.60
2010,11,22,03,48,19.30
2010,11,22,03,49,16.10
2010,11,22,03,50,14.50
2010,11,22,03,51,17.70
2010,11,22,03,52,16.10
2010,11,22,03,53,19.30
2010,11,22,03,54,19.30
2010,11,22,03,55,9.60
2010,11,22,03,56,22.50
2010,11,22,03,57,17.70
2010,11,22,03,58,24.20
2010,11,22,03,59,19.30
2010,11,22,04,00,17.70
2010,11,22,04,01,19.30
2010,11,22,04,02,17.70
2010,11,22,04,03,25.70
2010,11,22,04,04,24.20
2010,11,22,04,05,17.70
2010,11,22,04,06,11.30
2010,11,22,04,07,20.90
2010,11,22,04,08,24.20
2010,11,22,04,09,17.70
2010,11,22,04,10,20.90
2010,11,22,04,11,17.70
2010,11,22,04,12,9.60
2010,11,22,04,13,6.40
2010,11,22,04,14,14.50
2010,11,22,04,15,20.90
2010,11,22,04,16,20.90
2010,11,22,04,17,11.30
2010,11,22,04,18,19.30
2010,11,22,04,19,17.70
2010,11,22,04,20,4.80
2010,11,22,04,21,11.30
2010,11,22,04,22,9.60
2010,11,22,04,23,11.30
2010,11,22,04,24,9.60
2010,11,22,04,25,17.70
2010,11,22,04,26,16.10
2010,11,22,04,27,11.30
2010,11,22,04,28,9.60
2010,11,22,04,29,8.10
2010,11,22,04,30,19.30
2010,11,22,04,31,20.90
2010,11,22,04,32,22.50
2010,11,22,04,33,19.30
2010,11,22,04,34,19.30
2010,11,22,04,35,11.30
2010,11,22,04,36,20.90
2010,11,22,04,37,8.10
2010,11,22,04,38,4.80
2010,11,22,04,39,16.10
2010,11,22,04,40,16.10
2010,11,22,04,41,17.70
2010,11,22,04,42,16.10
2010,11,22,04,43,8.10
2010,11,22,04,44,19.30
2010,11,22,04,45,17.70
2010,11,22,04,46,16.10
2010,11,22,04,47,19.30
2010,11,22,04,48,19.30
2010,11,22,04,49,9.60
2010,11,22,04,50,4.80
2010,11,22,04,51,4.80
2010,11,22,04,52,14.50
2010,11,22,04,53,8.10
2010,11,22,04,54,17.70
2010,11,22,04,55,11.30
2010,11,22,04,56,16.10
2010,11,22,04,57,14.50
2010,11,22,04,58,8.10
2010,11,22,04,59,14.50
2010,11,22,05,00,19.30
2010,11,22,05,01,11.30
2010,11,22,05,02,9.60
2010,11,22,05,03,20.90
2010,11,22,05,04,17.70
2010,11,22,05,05,17.70
2010,11,22,05,06,20.90
2010,11,22,05,07,11.30
2010,11,22,05,08,12.90
2010,11,22,05,09,9.60
2010,11,22,05,10,6.40
2010,11,22,05,11,8.10
2010,11,22,05,12,8.10
2010,11,22,05,13,8.10
2010,11,22,05,14,16.10
2010,11,22,05,15,14.50
2010,11,22,05,16,11.30
2010,11,22,05,17,11.30
2010,11,22,05,18,19.30
2010,11,22,05,19,16.10
2010,11,22,05,20,11.30
2010,11,22,05,21,9.60
2010,11,22,05,22,19.30
2010,11,22,05,23,11.30
2010,11,22,05,24,8.10
2010,11,22,05,25,8.10
2010,11,22,05,26,9.60
2010,11,22,05,27,11.30
2010,11,22,05,28,11.30
2010,11,22,05,29,8.10
2010,11,22,05,30,4.80
2010,11,22,05,31,14.50
2010,11,22,05,32,14.50
2010,11,22,05,33,11.30
2010,11,22,05,34,11.30
2010,11,22,05,35,8.10
2010,11,22,05,36,8.10
2010,11,22,05,37,4.80
2010,11,22,05,38,8.10
2010,11,22,05,39,11.30
2010,11,22,05,40,17.70
2010,11,22,05,41,16.10
2010,11,22,05,42,14.50
2010,11,22,05,43,14.50
2010,11,22,05,44,9.60
2010,11,22,05,45,8.10
2010,11,22,05,46,8.10
2010,11,22,05,47,11.30
2010,11,22,05,48,11.30
2010,11,22,05,49,14.50
2010,11,22,05,50,8.10
2010,11,22,05,51,14.50
2010,11,22,05,52,17.70
2010,11,22,05,53,11.30
2010,11,22,05,54,6.40
2010,11,22,05,55,8.10
2010,11,22,05,56,11.30
2010,11,22,05,57,9.60
2010,11,22,05,58,9.60
2010,11,22,05,59,6.40
2010,11,22,06,00,6.40
2010,11,22,06,01,9.60
2010,11,22,06,02,11.30
2010,11,22,06,03,8.10
2010,11,22,06,04,9.60
2010,11,22,06,05,9.60
2010,11,22,06,06,8.10
2010,11,22,06,07,8.10
2010,11,22,06,08,9.60
2010,11,22,06,09,8.10
2010,11,22,06,10,9.60
2010,11,22,06,11,8.10
2010,11,22,06,12,6.40
2010,11,22,06,13,4.80
2010,11,22,06,14,6.40
2010,11,22,06,15,4.80
2010,11,22,06,16,6.40
2010,11,22,06,17,6.40
2010,11,22,06,18,4.80
2010,11,22,06,19,4.80
2010,11,22,06,20,6.40
2010,11,22,06,21,6.40
2010,11,22,06,22,9.60
2010,11,22,06,23,6.40
2010,11,22,06,24,9.60
2010,11,22,06,25,9.60
2010,11,22,06,26,11.30
2010,11,22,06,27,6.40
2010,11,22,06,28,8.10
2010,11,22,06,29,9.60
2010,11,22,06,30,11.30
2010,11,22,06,31,9.60
2010,11,22,06,32,16.10
2010,11,22,06,33,8.10
2010,11,22,06,34,8.10
2010,11,22,06,35,8.10
2010,11,22,06,36,6.40
2010,11,22,06,37,16.10
2010,11,22,06,38,11.30
2010,11,22,06,39,17.70
2010,11,22,06,40,11.30
2010,11,22,06,41,17.70
2010,11,22,06,42,20.90
2010,11,22,06,43,22.50
2010,11,22,06,44,16.10
2010,11,22,06,45,22.50
2010,11,22,06,46,17.70
2010,11,22,06,47,20.90
2010,11,22,06,48,29.00
2010,11,22,06,49,20.90
2010,11,22,06,50,20.90
2010,11,22,06,51,25.70
2010,11,22,06,52,19.30
2010,11,22,06,53,22.50
2010,11,22,06,54,20.90
2010,11,22,06,55,14.50
2010,11,22,06,56,12.90
2010,11,22,06,57,16.10
2010,11,22,06,58,25.70
2010,11,22,06,59,20.90
2010,11,22,07,00,17.70
2010,11,22,07,01,22.50
2010,11,22,07,02,14.50
2010,11,22,07,03,19.30
2010,11,22,07,04,27.40
2010,11,22,07,05,19.30
2010,11,22,07,06,19.30
2010,11,22,07,07,11.30
2010,11,22,07,08,27.40
2010,11,22,07,09,30.60
2010,11,22,07,10,32.20
2010,11,22,07,11,29.00
2010,11,22,07,12,32.20
2010,11,22,07,13,22.50
2010,11,22,07,14,25.70
2010,11,22,07,15,27.40
2010,11,22,07,16,35.40
2010,11,22,07,17,25.70
2010,11,22,07,18,17.70
2010,11,22,07,19,20.90
2010,11,22,07,20,24.20
2010,11,22,07,21,24.20
2010,11,22,07,22,40.20
2010,11,22,07,23,27.40
2010,11,22,07,24,27.40
2010,11,22,07,25,25.70
2010,11,22,07,26,29.00
2010,11,22,07,27,30.60
2010,11,22,07,28,30.60
2010,11,22,07,29,29.00
2010,11,22,07,30,27.40
2010,11,22,07,31,30.60
2010,11,22,07,32,30.60
2010,11,22,07,33,27.40
2010,11,22,07,34,25.70
2010,11,22,07,35,22.50
2010,11,22,07,36,30.60
2010,11,22,07,37,20.90
2010,11,22,07,38,14.50
2010,11,22,07,39,19.30
2010,11,22,07,40,22.50
2010,11,22,07,41,33.80
2010,11,22,07,42,29.00
2010,11,22,07,43,29.00
2010,11,22,07,44,25.70
2010,11,22,07,45,29.00
2010,11,22,07,46,25.70
2010,11,22,07,47,27.40
2010,11,22,07,48,27.40
2010,11,22,07,49,25.70
2010,11,22,07,50,22.50
2010,11,22,07,51,22.50
2010,11,22,07,52,14.50
2010,11,22,07,53,24.20
2010,11,22,07,54,32.20
2010,11,22,07,55,30.60
2010,11,22,07,56,27.40
2010,11,22,07,57,25.70
2010,11,22,07,58,24.20
2010,11,22,07,59,20.90
2010,11,22,08,00,22.50
2010,11,22,08,01,29.00
2010,11,22,08,02,20.90
2010,11,22,08,03,24.20
2010,11,22,08,04,20.90
2010,11,22,08,05,17.70
2010,11,22,08,06,11.30
2010,11,22,08,07,30.60
2010,11,22,08,08,20.90
2010,11,22,08,09,19.30
2010,11,22,08,10,14.50
2010,11,22,08,11,24.20
2010,11,22,08,12,11.30
2010,11,22,08,13,17.70
2010,11,22,08,14,24.20
2010,11,22,08,15,25.70
2010,11,22,08,16,20.90
2010,11,22,08,17,27.40
2010,11,22,08,18,16.10
2010,11,22,08,19,24.20
2010,11,22,08,20,17.70
2010,11,22,08,21,17.70
2010,11,22,08,22,24.20
2010,11,22,08,23,17.70
2010,11,22,08,24,27.40
2010,11,22,08,25,20.90
2010,11,22,08,26,24.20
2010,11,22,08,27,17.70
2010,11,22,08,28,24.20
2010,11,22,08,29,17.70
2010,11,22,08,30,24.20
2010,11,22,08,31,22.50
2010,11,22,08,32,20.90
2010,11,22,08,33,19.30
2010,11,22,08,34,12.90
2010,11,22,08,35,11.30
2010,11,22,08,36,12.90
2010,11,22,08,37,25.70
2010,11,22,08,38,27.40
2010,11,22,08,39,22.50
2010,11,22,08,40,12.90
2010,11,22,08,41,17.70
2010,11,22,08,42,22.50
2010,11,22,08,43,16.10
2010,11,22,08,44,8.10
2010,11,22,08,45,22.50
2010,11,22,08,46,17.70
2010,11,22,08,47,14.50
2010,11,22,08,48,17.70
2010,11,22,08,49,16.10
2010,11,22,08,50,25.70
2010,11,22,08,51,24.20
2010,11,22,08,52,24.20
2010,11,22,08,53,17.70
2010,11,22,08,54,17.70
2010,11,22,08,55,24.20
2010,11,22,08,56,22.50
2010,11,22,08,57,16.10
2010,11,22,08,58,20.90
2010,11,22,08,59,16.10
2010,11,22,09,00,12.90
2010,11,22,09,01,11.30
2010,11,22,09,02,11.30
2010,11,22,09,03,9.60
2010,11,22,09,04,11.30
2010,11,22,09,05,16.10
2010,11,22,09,06,14.50
2010,11,22,09,07,20.90
2010,11,22,09,08,17.70
2010,11,22,09,09,25.70
2010,11,22,09,10,20.90
2010,11,22,09,11,19.30
2010,11,22,09,12,12.90
2010,11,22,09,13,16.10
2010,11,22,09,14,11.30
2010,11,22,09,15,9.60
2010,11,22,09,16,8.10
2010,11,22,09,17,12.90
2010,11,22,09,18,11.30
2010,11,22,09,19,16.10
2010,11,22,09,20,12.90
2010,11,22,09,21,17.70
2010,11,22,09,22,11.30
2010,11,22,09,23,9.60
2010,11,22,09,24,11.30
2010,11,22,09,25,9.60
2010,11,22,09,26,9.60
2010,11,22,09,27,9.60
2010,11,22,09,28,20.90
2010,11,22,09,29,14.50
2010,11,22,09,30,17.70
2010,11,22,09,31,14.50
2010,11,22,09,32,22.50
2010,11,22,09,33,16.10
2010,11,22,09,34,16.10
2010,11,22,09,35,12.90
2010,11,22,09,36,14.50
2010,11,22,09,37,8.10
2010,11,22,09,38,16.10
2010,11,22,09,39,19.30
2010,11,22,09,40,22.50
2010,11,22,09,41,20.90
2010,11,22,09,42,22.50
2010,11,22,09,43,20.90
2010,11,22,09,44,17.70
2010,11,22,09,45,17.70
2010,11,22,09,46,19.30
2010,11,22,09,47,17.70
2010,11,22,09,48,24.20
2010,11,22,09,49,25.70
2010,11,22,09,50,22.50
2010,11,22,09,51,19.30
2010,11,22,09,52,20.90
2010,11,22,09,53,22.50
2010,11,22,09,54,20.90
2010,11,22,09,55,20.90
2010,11,22,09,56,17.70
2010,11,22,09,57,24.20
2010,11,22,09,58,22.50
2010,11,22,09,59,20.90
2010,11,22,10,00,22.50
2010,11,22,10,01,16.10
2010,11,22,10,02,17.70
2010,11,22,10,03,16.10
2010,11,22,10,04,11.30
2010,11,22,10,05,17.70
2010,11,22,10,06,17.70
2010,11,22,10,07,19.30
2010,11,22,10,08,11.30
2010,11,22,10,09,17.70
2010,11,22,10,10,29.00
2010,11,22,10,11,27.40
2010,11,22,10,12,24.20
2010,11,22,10,13,19.30
2010,11,22,10,14,14.50
2010,11,22,10,15,27.40
2010,11,22,10,16,27.40
2010,11,22,10,17,29.00
2010,11,22,10,18,20.90
2010,11,22,10,19,25.70
2010,11,22,10,20,20.90
2010,11,22,10,21,16.10
2010,11,22,10,22,9.60
2010,11,22,10,23,12.90
2010,11,22,10,24,17.70
2010,11,22,10,25,17.70
2010,11,22,10,26,12.90
2010,11,22,10,27,14.50
2010,11,22,10,28,9.60
2010,11,22,10,29,12.90
2010,11,22,10,30,22.50
2010,11,22,10,31,17.70
2010,11,22,10,32,20.90
2010,11,22,10,33,17.70
2010,11,22,10,34,24.20
2010,11,22,10,35,27.40
2010,11,22,10,36,29.00
2010,11,22,10,37,30.60
2010,11,22,10,38,30.60
2010,11,22,10,39,25.70
2010,11,22,10,40,17.70
2010,11,22,10,41,29.00
2010,11,22,10,42,27.40
2010,11,22,10,43,30.60
2010,11,22,10,44,24.20
2010,11,22,10,45,27.40
2010,11,22,10,46,32.20
2010,11,22,10,47,25.70
2010,11,22,10,48,24.20
2010,11,22,10,49,25.70
2010,11,22,10,50,32.20
2010,11,22,10,51,24.20
2010,11,22,10,52,22.50
2010,11,22,10,53,24.20
2010,11,22,10,54,24.20
2010,11,22,10,55,17.70
2010,11,22,10,56,20.90
2010,11,22,10,57,27.40
2010,11,22,10,58,25.70
2010,11,22,10,59,19.30
2010,11,22,11,00,25.70
2010,11,22,11,01,27.40
2010,11,22,11,02,25.70
2010,11,22,11,03,27.40
2010,11,22,11,04,22.50
2010,11,22,11,05,25.70
2010,11,22,11,06,22.50
2010,11,22,11,07,35.40
2010,11,22,11,08,27.40
2010,11,22,11,09,33.80
2010,11,22,11,10,32.20
2010,11,22,11,11,32.20
2010,11,22,11,12,45.10
2010,11,22,11,13,25.70
2010,11,22,11,14,27.40
2010,11,22,11,15,19.30
2010,11,22,11,16,27.40
2010,11,22,11,17,29.00
2010,11,22,11,18,22.50
2010,11,22,11,19,14.50
2010,11,22,11,20,17.70
2010,11,22,11,21,27.40
2010,11,22,11,22,29.00
2010,11,22,11,23,22.50
2010,11,22,11,24,29.00
2010,11,22,11,25,29.00
2010,11,22,11,26,29.00
2010,11,22,11,27,27.40
2010,11,22,11,28,24.20
2010,11,22,11,29,33.80
2010,11,22,11,30,25.70
2010,11,22,11,31,32.20
2010,11,22,11,32,35.40
2010,11,22,11,33,29.00
2010,11,22,11,34,40.20
2010,11,22,11,35,27.40
2010,11,22,11,36,33.80
2010,11,22,11,37,37.00
2010,11,22,11,38,32.20
2010,11,22,11,39,51.50
2010,11,22,11,40,35.40
2010,11,22,11,41,32.20
2010,11,22,11,42,41.80
2010,11,22,11,43,35.40
2010,11,22,11,44,40.20
2010,11,22,11,45,30.60
2010,11,22,11,46,29.00
2010,11,22,11,47,40.20
2010,11,22,11,48,41.80
2010,11,22,11,49,41.80
2010,11,22,11,50,43.50
2010,11,22,11,51,43.50
2010,11,22,11,52,38.60
2010,11,22,11,53,53.10
2010,11,22,11,54,40.20
2010,11,22,11,55,27.40
2010,11,22,11,56,45.10
2010,11,22,11,57,40.20
2010,11,22,11,58,40.20
2010,11,22,11,59,30.60
2010,11,22,12,00,29.00
2010,11,22,12,01,35.40
2010,11,22,12,02,30.60
2010,11,22,12,03,46.70
2010,11,22,12,04,53.10
2010,11,22,12,05,51.50
2010,11,22,12,06,37.00
2010,11,22,12,07,49.90
2010,11,22,12,08,29.00
2010,11,22,12,09,33.80
2010,11,22,12,10,46.70
2010,11,22,12,11,32.20
2010,11,22,12,12,25.70
2010,11,22,12,13,37.00
2010,11,22,12,14,38.60
2010,11,22,12,15,37.00
2010,11,22,12,16,35.40
2010,11,22,12,17,38.60
2010,11,22,12,18,35.40
2010,11,22,12,19,37.00
2010,11,22,12,20,30.60
2010,11,22,12,21,37.00
2010,11,22,12,22,29.00
2010,11,22,12,23,32.20
2010,11,22,12,24,30.60
2010,11,22,12,25,33.80
2010,11,22,12,26,40.20
2010,11,22,12,27,35.40
2010,11,22,12,28,45.10
2010,11,22,12,29,37.00
2010,11,22,12,30,38.60
2010,11,22,12,31,38.60
2010,11,22,12,32,53.10
2010,11,22,12,33,53.10
2010,11,22,12,34,46.70
2010,11,22,12,35,38.60
2010,11,22,12,36,43.50
2010,11,22,12,37,43.50
2010,11,22,12,38,40.20
2010,11,22,12,39,30.60
2010,11,22,12,40,56.30
2010,11,22,12,41,40.20
2010,11,22,12,42,46.70
2010,11,22,12,43,54.70
2010,11,22,12,44,41.80
2010,11,22,12,45,40.20
2010,11,22,12,46,37.00
2010,11,22,12,47,37.00
2010,11,22,12,48,41.80
2010,11,22,12,49,43.50
2010,11,22,12,50,48.30
2010,11,22,12,51,41.80
2010,11,22,12,52,38.60
2010,11,22,12,53,57.90
2010,11,22,12,54,49.90
2010,11,22,12,55,48.30
2010,11,22,12,56,53.10
2010,11,22,12,57,27.40
2010,11,22,12,58,53.10
2010,11,22,12,59,49.90
2010,11,22,13,00,40.20
2010,11,22,13,01,38.60
2010,11,22,13,02,35.40
2010,11,22,13,03,40.20
2010,11,22,13,04,46.70
2010,11,22,13,05,40.20
2010,11,22,13,06,37.00
2010,11,22,13,07,32.20
2010,11,22,13,08,35.40
2010,11,22,13,09,53.10
2010,11,22,13,10,53.10
2010,11,22,13,11,41.80
2010,11,22,13,12,53.10
2010,11,22,13,13,45.10
2010,11,22,13,14,45.10
2010,11,22,13,15,48.30
2010,11,22,13,16,49.90
2010,11,22,13,17,35.40
2010,11,22,13,18,27.40
2010,11,22,13,19,45.10
2010,11,22,13,20,29.00
2010,11,22,13,21,35.40
2010,11,22,13,22,46.70
2010,11,22,13,23,53.10
2010,11,22,13,24,56.30
2010,11,22,13,25,40.20
2010,11,22,13,26,35.40
2010,11,22,13,27,53.10
2010,11,22,13,28,57.90
2010,11,22,13,29,45.10
2010,11,22,13,30,67.60
2010,11,22,13,31,53.10
2010,11,22,13,32,37.00
2010,11,22,13,33,41.80
2010,11,22,13,34,49.90
2010,11,22,13,35,67.60
2010,11,22,13,36,49.90
2010,11,22,13,37,53.10
2010,11,22,13,38,53.10
2010,11,22,13,39,46.70
2010,11,22,13,40,46.70
2010,11,22,13,41,41.80
2010,11,22,13,42,38.60
2010,11,22,13,43,53.10
2010,11,22,13,44,57.90
2010,11,22,13,45,51.50
2010,11,22,13,46,43.50
2010,11,22,13,47,38.60
2010,11,22,13,48,53.10
2010,11,22,13,49,61.20
2010,11,22,13,50,61.20
2010,11,22,13,51,64.40
2010,11,22,13,52,56.30
2010,11,22,13,53,70.80
2010,11,22,13,54,69.20
2010,11,22,13,55,59.50
2010,11,22,13,56,53.10
2010,11,22,13,57,54.70
2010,11,22,13,58,51.50
2010,11,22,13,59,54.70
2010,11,22,14,00,51.50
2010,11,22,14,01,53.10
2010,11,22,14,02,59.50
2010,11,22,14,03,53.10
2010,11,22,14,04,66.00
2010,11,22,14,05,54.70
2010,11,22,14,06,53.10
2010,11,22,14,07,61.20
2010,11,22,14,08,64.40
2010,11,22,14,09,64.40
2010,11,22,14,10,59.50
2010,11,22,14,11,64.40
2010,11,22,14,12,57.90
2010,11,22,14,13,69.20
2010,11,22,14,14,59.50
2010,11,22,14,15,56.30
2010,11,22,14,16,57.90
2010,11,22,14,17,59.50
2010,11,22,14,18,51.50
2010,11,22,14,19,49.90
2010,11,22,14,20,53.10
2010,11,22,14,21,53.10
2010,11,22,14,22,67.60
2010,11,22,14,23,53.10
2010,11,22,14,24,61.20
2010,11,22,14,25,38.60
2010,11,22,14,26,53.10
2010,11,22,14,27,53.10
2010,11,22,14,28,43.50
2010,11,22,14,29,48.30
2010,11,22,14,30,59.50
2010,11,22,14,31,57.90
2010,11,22,14,32,43.50
2010,11,22,14,33,45.10
2010,11,22,14,34,48.30
2010,11,22,14,35,43.50
2010,11,22,14,36,49.90
2010,11,22,14,37,48.30
2010,11,22,14,38,53.10
2010,11,22,14,39,49.90
2010,11,22,14,40,45.10
2010,11,22,14,41,37.00
2010,11,22,14,42,48.30
2010,11,22,14,43,45.10
2010,11,22,14,44,45.10
2010,11,22,14,45,43.50
2010,11,22,14,46,59.50
2010,11,22,14,47,51.50
2010,11,22,14,48,56.30
2010,11,22,14,49,54.70
2010,11,22,14,50,66.00
2010,11,22,14,51,53.10
2010,11,22,14,52,59.50
2010,11,22,14,53,59.50
2010,11,22,14,54,70.80
2010,11,22,14,55,48.30
2010,11,22,14,56,45.10
2010,11,22,14,57,64.40
2010,11,22,14,58,46.70
2010,11,22,14,59,53.10
2010,11,22,15,00,59.50
2010,11,22,15,01,59.50
2010,11,22,15,02,35.40
2010,11,22,15,03,57.90
2010,11,22,15,04,53.10
2010,11,22,15,05,53.10
2010,11,22,15,06,54.70
2010,11,22,15,07,48.30
2010,11,22,15,08,57.90
2010,11,22,15,09,51.50
2010,11,22,15,10,51.50
2010,11,22,15,11,48.30
2010,11,22,15,12,69.20
2010,11,22,15,13,53.10
2010,11,22,15,14,53.10
2010,11,22,15,15,40.20
2010,11,22,15,16,67.60
2010,11,22,15,17,56.30
2010,11,22,15,18,56.30
2010,11,22,15,19,67.60
2010,11,22,15,20,64.40
2010,11,22,15,21,51.50
2010,11,22,15,22,56.30
2010,11,22,15,23,67.60
2010,11,22,15,24,59.50
2010,11,22,15,25,51.50
2010,11,22,15,26,64.40
2010,11,22,15,27,57.90
2010,11,22,15,28,56.30
2010,11,22,15,29,51.50
2010,11,22,15,30,64.40
2010,11,22,15,31,56.30
2010,11,22,15,32,59.50
2010,11,22,15,33,64.40
2010,11,22,15,34,53.10
2010,11,22,15,35,59.50
2010,11,22,15,36,59.50
2010,11,22,15,37,64.40
2010,11,22,15,38,48.30
2010,11,22,15,39,46.70
2010,11,22,15,40,54.70
2010,11,22,15,41,56.30
2010,11,22,15,42,66.00
2010,11,22,15,43,57.90
2010,11,22,15,44,56.30
2010,11,22,15,45,53.10
2010,11,22,15,46,53.10
2010,11,22,15,47,53.10
2010,11,22,15,48,45.10
2010,11,22,15,49,59.50
2010,11,22,15,50,62.70
2010,11,22,15,51,51.50
2010,11,22,15,52,67.60
2010,11,22,15,53,72.40
2010,11,22,15,54,62.70
2010,11,22,15,55,67.60
2010,11,22,15,56,53.10
2010,11,22,15,57,57.90
2010,11,22,15,58,53.10
2010,11,22,15,59,62.70
2010,11,22,16,00,69.20
2010,11,22,16,01,59.50
2010,11,22,16,02,56.30
2010,11,22,16,03,54.70
2010,11,22,16,04,64.40
2010,11,22,16,05,54.70
2010,11,22,16,06,69.20
2010,11,22,16,07,53.10
2010,11,22,16,08,62.70
2010,11,22,16,09,64.40
2010,11,22,16,10,57.90
2010,11,22,16,11,48.30
2010,11,22,16,12,67.60
2010,11,22,16,13,66.00
2010,11,22,16,14,46.70
2010,11,22,16,15,54.70
2010,11,22,16,16,66.00
2010,11,22,16,17,66.00
2010,11,22,16,18,53.10
2010,11,22,16,19,61.20
2010,11,22,16,20,56.30
2010,11,22,16,21,57.90
2010,11,22,16,22,59.50
2010,11,22,16,23,53.10
2010,11,22,16,24,62.70
2010,11,22,16,25,53.10
2010,11,22,16,26,51.50
2010,11,22,16,27,53.10
2010,11,22,16,28,69.20
2010,11,22,16,29,72.40
2010,11,22,16,30,61.20
2010,11,22,16,31,53.10
2010,11,22,16,32,66.00
2010,11,22,16,33,61.20
2010,11,22,16,34,62.70
2010,11,22,16,35,53.10
2010,11,22,16,36,45.10
2010,11,22,16,37,64.40
2010,11,22,16,38,72.40
2010,11,22,16,39,70.80
2010,11,22,16,40,56.30
2010,11,22,16,41,56.30
2010,11,22,16,42,53.10
2010,11,22,16,43,53.10
2010,11,22,16,44,53.10
2010,11,22,16,45,64.40
2010,11,22,16,46,51.50
2010,11,22,16,47,59.50
2010,11,22,16,48,51.50
2010,11,22,16,49,53.10
2010,11,22,16,50,74.00
2010,11,22,16,51,49.90
2010,11,22,16,52,59.50
2010,11,22,16,53,53.10
2010,11,22,16,54,56.30
2010,11,22,16,55,74.00
2010,11,22,16,56,69.20
2010,11,22,16,57,66.00
2010,11,22,16,58,49.90
2010,11,22,16,59,62.70
2010,11,22,17,00,69.20
2010,11,22,17,01,64.40
2010,11,22,17,02,49.90
2010,11,22,17,03,61.20
2010,11,22,17,04,64.40
2010,11,22,17,05,64.40
2010,11,22,17,06,62.70
2010,11,22,17,07,74.00
2010,11,22,17,08,70.80
2010,11,22,17,09,64.40
2010,11,22,17,10,64.40
2010,11,22,17,11,49.90
2010,11,22,17,12,57.90
2010,11,22,17,13,64.40
2010,11,22,17,14,61.20
2010,11,22,17,15,74.00
2010,11,22,17,16,78.80
2010,11,22,17,17,51.50
2010,11,22,17,18,69.20
2010,11,22,17,19,64.40
2010,11,22,17,20,61.20
2010,11,22,17,21,43.50
2010,11,22,17,22,66.00
2010,11,22,17,23,61.20
2010,11,22,17,24,53.10
2010,11,22,17,25,80.50
2010,11,22,17,26,61.20
2010,11,22,17,27,56.30
2010,11,22,17,28,53.10
2010,11,22,17,29,59.50